Coldwater, MI

4:06 AM EST on February 14, 2016 (GMT -0500)
Branch County Memorial

Weather History for KOEB - September, 2012

Change the Weather History Date:

Thursday, September 20, 2012

  Actual Average (KJYM) Record (KJYM)
Temperature  
Mean Temperature 59 °F -  
Max Temperature 70 °F 71 °F 84 °F (1984)
Min Temperature 48 °F 50 °F 29 °F (1956)
Degree Days  
Heating Degree Days 6    
Growing Degree Days 9 (Base 50)    
Moisture  
Dew Point 45 °F    
Average Humidity 59    
Maximum Humidity 90    
Minimum Humidity 36    
Precipitation  
Precipitation 0.00 in - - ()
Sea Level Pressure  
Sea Level Pressure 29.90 in    
Wind  
Wind Speed 8 mph (SW)    
Max Wind Speed 15 mph    
Max Gust Speed 24 mph    
Visibility 10 miles    
Events      
Averages and records for this station are not official NWS values.
T = Trace of Precipitation, MM = Missing Value Source: NWS Daily Summary

Daily Weather History Graph

Daily Weather History Graph

Search for Another Location

Airport or City:

Trip Planner

Search our weather history database for the weather conditions in past years. The results will help you decide how hot, cold, wet, or windy it might be!

Date:

Astronomy

Sep. 20, 2012 Rise Set
Actual Time 7:26 AM EDT 7:40 PM EDT
Civil Twilight 6:58 AM EDT 8:07 PM EDT
Nautical Twilight 6:25 AM EDT 8:40 PM EDT
Astronomical Twilight 5:51 AM EDT 9:13 PM EDT
Moon 12:49 PM EDT (9/20) 10:35 PM EDT (9/20)
Length of Visible Light 13h 09m
Length of Day
12h 14m
Waxing Crescent, 26% of the Moon is Illuminated
Sep 20
Waxing Crescent
Sep 22
First Quarter
Sep 29
Full
Oct 8
Last Quarter
Oct 15
New

Hourly Weather History & Observations

Time (EDT) Temp. Dew Point Humidity Pressure Visibility Wind Dir Wind Speed Gust Speed Precip Events Conditions
12:35 AM 57.2 °F 37.9 °F 49% 29.96 in 10.0 mi SSW 6.9 mph - N/A   Clear
12:54 AM 57.2 °F 37.9 °F 49% 29.96 in 10.0 mi SSW 9.2 mph - N/A   Clear
1:15 AM 57.2 °F 37.9 °F 49% 29.95 in 10.0 mi South 9.2 mph - N/A   Clear
1:35 AM 57.4 °F 38.3 °F 49% 29.94 in 10.0 mi South 9.2 mph 16.1 mph N/A   Scattered Clouds
1:55 AM 57.7 °F 38.3 °F 48% 29.94 in 10.0 mi South 5.8 mph - N/A   Scattered Clouds
2:15 AM 57.4 °F 38.3 °F 49% 29.93 in 10.0 mi South 9.2 mph 16.1 mph N/A   Clear
2:35 AM 57.4 °F 38.5 °F 49% 29.93 in 10.0 mi South 8.1 mph 19.6 mph N/A   Clear
2:55 AM 57.6 °F 38.3 °F 49% 29.93 in 10.0 mi South 9.2 mph 17.3 mph N/A   Scattered Clouds
3:15 AM 59.0 °F 38.1 °F 46% 29.92 in 10.0 mi South 6.9 mph 18.4 mph N/A   Mostly Cloudy
3:33 AM 59.0 °F 38.3 °F 46% 29.91 in 10.0 mi SSW 11.5 mph 19.6 mph N/A   Overcast
3:54 AM 58.6 °F 38.8 °F 48% 29.91 in 10.0 mi SSW 10.4 mph 24.2 mph N/A   Overcast
4:14 AM 58.3 °F 39.2 °F 49% 29.90 in 10.0 mi SSW 9.2 mph 21.9 mph N/A   Overcast
4:35 AM 57.6 °F 39.7 °F 51% 29.90 in 10.0 mi SSW 11.5 mph 23.0 mph N/A   Mostly Cloudy
4:54 AM 57.4 °F 40.1 °F 53% 29.89 in 10.0 mi SSW 9.2 mph 17.3 mph N/A   Mostly Cloudy
5:15 AM 56.8 °F 40.5 °F 54% 29.89 in 10.0 mi SSW 10.4 mph - N/A   Mostly Cloudy
5:35 AM 57.2 °F 41.0 °F 55% 29.89 in 10.0 mi SSW 11.5 mph 18.4 mph N/A   Overcast
6:15 AM 57.4 °F 41.5 °F 56% 29.88 in 10.0 mi SSW 8.1 mph 16.1 mph N/A   Overcast
6:35 AM 57.0 °F 42.1 °F 57% 29.88 in 10.0 mi SSW 10.4 mph 16.1 mph N/A   Overcast
6:55 AM 57.2 °F 42.4 °F 58% 29.88 in 10.0 mi SSW 10.4 mph - N/A   Overcast
7:15 AM 56.5 °F 43.0 °F 61% 29.88 in 10.0 mi SSW 8.1 mph - N/A   Overcast
7:34 AM 56.3 °F 43.7 °F 63% 29.88 in 10.0 mi SSW 6.9 mph - N/A   Overcast
7:55 AM 54.9 °F 46.0 °F 72% 29.89 in 10.0 mi SSW 6.9 mph - N/A   Mostly Cloudy
8:15 AM 54.5 °F 46.6 °F 75% 29.89 in 10.0 mi SSW 6.9 mph - N/A   Mostly Cloudy
8:34 AM 54.7 °F 46.8 °F 75% 29.88 in 10.0 mi SW 8.1 mph - N/A   Overcast
8:55 AM 54.7 °F 46.8 °F 75% 29.90 in 10.0 mi SSW 6.9 mph - N/A   Mostly Cloudy
9:15 AM 54.9 °F 47.3 °F 76% 29.89 in 10.0 mi SSW 9.2 mph - N/A   Scattered Clouds
9:34 AM 55.2 °F 47.5 °F 75% 29.89 in 10.0 mi SW 9.2 mph - N/A   Clear
9:55 AM 57.0 °F 48.2 °F 72% 29.90 in 10.0 mi SW 9.2 mph - N/A   Clear
10:15 AM 58.1 °F 48.7 °F 71% 29.90 in 10.0 mi SW 10.4 mph - N/A   Clear
10:34 AM 59.0 °F 49.3 °F 70% 29.89 in 10.0 mi WSW 13.8 mph 19.6 mph N/A   Clear
10:55 AM 60.8 °F 50.7 °F 69% 29.89 in 10.0 mi SW 9.2 mph - N/A   Clear
11:15 AM 61.3 °F 50.5 °F 68% 29.89 in 10.0 mi SW 9.2 mph 17.3 mph N/A   Clear
11:34 AM 62.1 °F 51.1 °F 67% 29.88 in 10.0 mi SW 8.1 mph - N/A   Clear
11:55 AM 64.6 °F 52.7 °F 65% 29.88 in 10.0 mi WSW 10.4 mph - N/A   Scattered Clouds
12:15 PM 64.9 °F 52.3 °F 64% 29.88 in 10.0 mi West 5.8 mph - N/A   Scattered Clouds
12:35 PM 65.5 °F 52.0 °F 62% 29.88 in 10.0 mi West 8.1 mph - N/A   Scattered Clouds
12:55 PM 68.2 °F 52.9 °F 58% 29.88 in 10.0 mi WSW 6.9 mph - N/A   Scattered Clouds
1:15 PM 68.7 °F 52.2 °F 55% 29.88 in 10.0 mi West 12.7 mph - N/A   Scattered Clouds
1:35 PM 69.6 °F 50.4 °F 50% 29.88 in 10.0 mi WNW 11.5 mph 16.1 mph N/A   Mostly Cloudy
1:55 PM 69.1 °F 50.4 °F 51% 29.87 in 10.0 mi WSW 9.2 mph - N/A   Mostly Cloudy
2:14 PM 67.5 °F 48.6 °F 51% 29.87 in 10.0 mi West 11.5 mph 16.1 mph N/A   Scattered Clouds
2:35 PM 70.2 °F 48.9 °F 47% 29.86 in 10.0 mi WSW 10.4 mph 17.3 mph N/A   Clear
2:55 PM 68.0 °F 47.8 °F 48% 29.86 in 10.0 mi West 12.7 mph 16.1 mph N/A   Scattered Clouds
3:14 PM 69.6 °F 47.3 °F 45% 29.86 in 10.0 mi WSW 11.5 mph 18.4 mph N/A   Mostly Cloudy
3:35 PM 69.8 °F 45.0 °F 41% 29.86 in 10.0 mi West 9.2 mph 17.3 mph N/A   Overcast
3:55 PM 67.6 °F 45.5 °F 45% 29.86 in 10.0 mi West 13.8 mph 17.3 mph N/A   Mostly Cloudy
4:14 PM 67.5 °F 46.0 °F 46% 29.86 in 10.0 mi West 9.2 mph - N/A   Scattered Clouds
4:35 PM 67.6 °F 45.1 °F 44% 29.87 in 10.0 mi West 9.2 mph 18.4 mph N/A   Scattered Clouds
4:55 PM 67.3 °F 39.4 °F 36% 29.87 in 10.0 mi West 11.5 mph 19.6 mph N/A   Clear
5:14 PM 66.2 °F 40.6 °F 39% 29.88 in 10.0 mi West 15.0 mph 18.4 mph N/A   Clear
5:35 PM 65.3 °F 42.4 °F 43% 29.88 in 10.0 mi West 10.4 mph - N/A   Clear
5:55 PM 64.4 °F 40.8 °F 42% 29.88 in 10.0 mi WNW 8.1 mph - N/A   Clear
6:14 PM 63.7 °F 40.5 °F 43% 29.89 in 10.0 mi NW 9.2 mph - N/A   Scattered Clouds
6:35 PM 62.6 °F 41.4 °F 46% 29.89 in 10.0 mi NW 4.6 mph - N/A   Scattered Clouds
6:55 PM 62.1 °F 43.0 °F 50% 29.90 in 10.0 mi WNW 4.6 mph - N/A   Clear
7:15 PM 61.0 °F 43.3 °F 52% 29.90 in 10.0 mi Calm Calm - N/A   Clear
7:35 PM 61.2 °F 45.0 °F 55% 29.89 in 10.0 mi Calm Calm - N/A   Scattered Clouds
7:54 PM 60.4 °F 42.1 °F 51% 29.90 in 10.0 mi Calm Calm - N/A   Scattered Clouds
8:15 PM 57.7 °F 46.8 °F 67% 29.91 in 10.0 mi Calm Calm - N/A   Clear
8:35 PM 56.3 °F 46.8 °F 70% 29.90 in 10.0 mi Calm Calm - N/A   Clear
8:54 PM 55.8 °F 46.8 °F 72% 29.90 in 10.0 mi SSE 3.5 mph - N/A   Clear
9:15 PM 54.5 °F 47.7 °F 78% 29.91 in 10.0 mi SSE 3.5 mph - N/A   Clear
9:35 PM 52.7 °F 47.5 °F 82% 29.91 in 10.0 mi SSE 3.5 mph - N/A   Clear
9:54 PM 52.7 °F 46.8 °F 80% 29.91 in 10.0 mi SSE 4.6 mph - N/A   Clear
10:15 PM 52.0 °F 46.6 °F 82% 29.91 in 10.0 mi Calm Calm - N/A   Clear
10:35 PM 52.9 °F 47.3 °F 81% 29.91 in 10.0 mi Calm Calm - N/A   Clear
10:55 PM 50.7 °F 46.2 °F 85% 29.91 in 10.0 mi Calm Calm - N/A   Clear
11:15 PM 49.1 °F 44.4 °F 84% 29.91 in 10.0 mi Calm Calm - N/A   Clear
11:34 PM 48.4 °F 45.7 °F 90% 29.91 in 10.0 mi Calm Calm - N/A   Clear
11:55 PM 48.6 °F 45.7 °F 90% 29.91 in 10.0 mi Calm Calm - N/A   Clear